TimeMST,TemperatureF,Dew PointF,Humidity,Sea Level PressureIn,VisibilityMPH,Wind Direction,Wind SpeedMPH,Gust SpeedMPH,PrecipitationIn,Events,Conditions,WindDirDegrees,DateUTC
12:53 AM,32.0,30.9,96,30.14,10.0,Variable,4.6,-,N/A,,Clear,0,2012-11-07 07:53:00
1:53 AM,33.1,30.9,92,30.12,10.0,ENE,5.8,-,N/A,,Clear,60,2012-11-07 08:53:00
2:53 AM,32.0,30.0,92,30.10,10.0,ENE,4.6,-,N/A,,Clear,70,2012-11-07 09:53:00
3:53 AM,30.9,28.9,92,30.10,10.0,ENE,6.9,-,N/A,,Clear,70,2012-11-07 10:53:00
4:53 AM,30.9,28.0,89,30.10,10.0,NNE,5.8,-,N/A,,Clear,30,2012-11-07 11:53:00
5:53 AM,30.0,28.0,92,30.11,10.0,East,3.5,-,N/A,,Clear,80,2012-11-07 12:53:00
6:53 AM,28.9,27.0,92,30.12,10.0,NNE,6.9,-,N/A,,Clear,30,2012-11-07 13:53:00
7:53 AM,32.0,28.0,85,30.13,10.0,ENE,8.1,-,N/A,,Clear,70,2012-11-07 14:53:00
8:53 AM,36.0,30.0,79,30.12,10.0,ENE,5.8,-,N/A,,Clear,70,2012-11-07 15:53:00
9:53 AM,43.0,34.0,71,30.08,10.0,East,4.6,-,N/A,,Clear,90,2012-11-07 16:53:00
10:53 AM,51.1,34.0,52,30.04,10.0,Variable,3.5,-,N/A,,Clear,0,2012-11-07 17:53:00
11:53 AM,55.9,36.0,47,29.99,10.0,SW,9.2,-,N/A,,Clear,230,2012-11-07 18:53:00
12:53 PM,60.1,35.1,39,29.95,10.0,SSW,16.1,19.6,N/A,,Clear,210,2012-11-07 19:53:00
1:53 PM,62.1,30.9,31,29.91,10.0,SW,19.6,26.5,N/A,,Clear,220,2012-11-07 20:53:00
2:53 PM,63.0,28.9,28,29.88,10.0,SW,18.4,26.5,N/A,,Clear,220,2012-11-07 21:53:00
3:53 PM,61.0,27.0,27,29.89,10.0,SW,16.1,27.6,N/A,,Clear,230,2012-11-07 22:53:00
4:53 PM,59.0,27.0,29,29.88,10.0,SW,16.1,26.5,N/A,,Partly Cloudy,220,2012-11-07 23:53:00
5:53 PM,57.9,27.0,31,29.87,10.0,SSW,17.3,25.3,N/A,,Clear,210,2012-11-08 00:53:00
6:53 PM,53.1,30.0,41,29.90,10.0,South,9.2,-,N/A,,Clear,190,2012-11-08 01:53:00
7:53 PM,53.1,28.9,40,29.88,10.0,South,11.5,-,N/A,,Clear,190,2012-11-08 02:53:00
8:53 PM,53.1,30.0,41,29.87,10.0,South,12.7,-,N/A,,Mostly Cloudy,180,2012-11-08 03:53:00
9:53 PM,52.0,30.9,45,29.86,10.0,South,12.7,-,N/A,,Overcast,180,2012-11-08 04:53:00
10:53 PM,51.1,30.9,46,29.83,10.0,South,11.5,-,N/A,,Overcast,190,2012-11-08 05:53:00
11:53 PM,48.9,32.0,52,29.81,10.0,SSW,8.1,-,N/A,,Unknown,210,2012-11-08 06:53:00